Regional Weather Roundup
Issued by NWS

Home | Current Version | Previous Version | Graphics & Text | Print | Product List | Glossary On
Versions: 1 2 3 4 5 6 7 8 9 10 11 12 13 14 15 16 17 18 19 20 21 22 23 24 25 26 27 28 29 30 31 32 33 34 35 36 37 38 39 40 41 42 43 44 45 46 47 48 49 50
686
ASUS43 KMKX 291300
RWRWI

WISCONSIN REGIONAL WEATHER ROUNDUP
NATIONAL WEATHER SERVICE MILWAUKEE/SULLIVAN WI
800 AM CDT WED MAR 29 2017

NOTE: "FAIR" INDICATES FEW OR NO CLOUDS BELOW 12,000 FEET WITH NO
SIGNIFICANT WEATHER AND/OR OBSTRUCTIONS TO VISIBILITY.

WIZ001-002-006>008-014>016-023>028-291400-
NORTHWEST WISCONSIN

CITY           SKY/WX    TMP DP  RH WIND       PRES   REMARKS
SUPERIOR ARPT  CLOUDY    34  32  93 NE12      30.32S WCI  25
ASHLAND        CLOUDY    32  30  92 N5        30.32S WCI  27
HAYWARD        CLOUDY    32  29  88 N6        30.28R WCI  26
SIREN          CLOUDY    32  29  88 CALM      30.26S
CUMBERLAND     CLOUDY    37  28  70 CALM      30.25S
RICE LAKE      CLOUDY    33  31  90 CALM      30.27R
CHETEK         CLOUDY    33  30  89 CALM      30.26S
LADYSMITH      CLOUDY    37  30  76 E5        30.28S WCI  33
EAU CLAIRE     NOT AVBL
MENOMONIE      CLOUDY    37  32  81 CALM      30.25R
NEW RICHMOND   CLOUDY    38  30  73 CALM      30.24R
OSCEOLA        CLOUDY    35  30  83 CALM      30.26S
$$

WIZ003>005-009-010-017-018-291400-
NORTH CENTRAL WISCONSIN

CITY           SKY/WX    TMP DP  RH WIND       PRES   REMARKS
MANITOWISH WTR CLOUDY    31  29  92 E5        30.28F WCI  26
ARBOR VITAE    MOSUNNY   34  28  80 SE6       30.28S WCI  29
WOODRUFF       MOSUNNY   34  28  80 SE6       30.28S WCI  29
RHINELANDER    MOSUNNY   32  28  85 E5        30.30S WCI  27
EAGLE RIVER    MOSUNNY   27  27  98 CALM      30.30F
LAND O LAKES   CLOUDY    27  27  98 CALM      30.32F
PHILLIPS       CLOUDY    32  28  84 E3        30.26F
TOMAHAWK       CLOUDY    25  24  93 CALM      30.29S
MEDFORD        CLOUDY    32  29  88 E5        30.27S WCI  27
MERRILL        CLOUDY    28  27  96 CALM      30.30S
$$

WIZ029-030-035-036-043>047-291400-
CENTRAL WISCONSIN

CITY           SKY/WX    TMP DP  RH WIND       PRES   REMARKS
WAUSAU         CLOUDY    34  27  75 E9        30.28S WCI  27
MOSINEE        MOSUNNY   36  28  75 E8        30.29S WCI  29
MARSHFIELD     CLOUDY    36  29  75 E8        30.26S WCI  30
STEVENS POINT  CLOUDY    34  28  77 E10       30.29R WCI  26
WAUPACA        CLOUDY    37  32  83 NE5       30.30S WCI  33
WAUTOMA        PTSUNNY   37  31  78 NE6       30.29S WCI  32
WISC RAPIDS    CLOUDY    38  30  73 E8        30.29S WCI  32
CAMP DOUGLAS   NOT AVBL
$$

WIZ011>013-019>022-031-037>040-048>050-291400-
NORTHEAST WISCONSIN

CITY           SKY/WX    TMP DP  RH WIND       PRES   REMARKS
ANTIGO         MOSUNNY   34  26  74 E8        30.30S WCI  27
SHAWANO        CLOUDY    35  30  83 NE6       30.33S WCI  30
OCONTO         CLOUDY    32  30  92 CALM      30.34R
STURGEON BAY   SUNNY     36  30  79 NE9       30.32R WCI  29
GREEN BAY      CLOUDY    36  33  89 NE10      30.32R WCI  28
MANITOWOC      NOT AVBL
APPLETON       PTSUNNY   36  28  75 NE8       30.29R WCI  29
CLINTONVILLE   MOSUNNY   34  30  86 NE6       30.31S WCI  29
OSHKOSH        MOSUNNY   39  32  76 NE5       30.29S
$$

WIZ032>034-041-042-053>061-291400-
SOUTHWEST WISCONSIN

CITY           SKY/WX    TMP DP  RH WIND       PRES   REMARKS
LA CROSSE      CLOUDY    42  32  67 SE6       30.24R
SPARTA         CLOUDY    31  30  96 CALM      30.26S
VIROQUA        CLOUDY    38  35  90 CALM      30.22R
BOSCOBEL       CLOUDY    39  37  92 NE5       30.24R FOG
PRAIRIE DU CHI CLOUDY    39  35  87 E5        30.21S
PLATTEVILLE    CLOUDY    39  39 100 E9        30.21R WCI  33
$$

WIZ056-057-062-063-064-067-068-291400-
SOUTH CENTRAL WISCONSIN

CITY           SKY/WX    TMP DP  RH WIND       PRES   REMARKS
REEDSBURG      PTSUNNY   35  34  96 E5        30.26S WCI  31
BARABOO/DELLS  PTSUNNY   35  33  93 E5        30.25F WCI  30
LONE ROCK      NOT AVBL
MINERAL POINT  CLOUDY    37  37 100 E8        30.23R FOG     WCI  31
MADISON        CLOUDY    33  33 100 CALM      30.26R
MIDDLETON      PTSUNNY   35  35 100 CALM      30.26R
WATERTOWN      CLOUDY    32  32 100 NE3       30.25F
MONROE         FOG       34  34 100 NE6       30.23R VSB 1/4 WCI  29
JANESVILLE     CLOUDY    36  36 100 NE3       30.25R
$$

WIZ051-052-058>065-066-070>072-291400-
SOUTHEAST WISCONSIN

CITY           SKY/WX    TMP DP  RH WIND       PRES   REMARKS
MILWAUKEE      FOG       35  33  92 NE7       30.27S VSB 3/4 WCI  29
WAUKESHA       PTSUNNY   32  32 100 NE6       30.27S WCI  26
MILWAUKEE/TIMM SUNNY     34  32  93 NE6       30.28S FOG     WCI  29
RACINE         FOG       32  31  96 NE10      30.27F VSB 1/2 WCI  24
KENOSHA        FOG       32  31  96 NE6       30.26S VSB 1   WCI  26
FOND DU LAC    CLOUDY    38  31  76 NE7       30.29S WCI  33
SHEBOYGAN      SUNNY     37  34  89 NE7       30.30R WCI  32
WEST BEND      FOG       32  32 100 NE5       30.28S VSB<1/4 WCI  27
JUNEAU         MOSUNNY   33  32  94 CALM      30.27S
$$

LSZ147-162-291400-
LAKE SUPERIOR

STATION/POSITION TIME  TEMP    WIND        PRES    WAVE
                       AIR SEA DIR/SP/G            HT/PER
                 (UTC) (F)     (DEG/KT/KT) (MB)    (FT/S)
DEVILS ISLAND    1200   35      70/ 17/ 19 1028.1R
PORT WING        1240   31      70/  2/  3 1026.4F
SAXON HARBOR     1240   27     180/  2/  3 1026.4S
$$

LMZ867-665-643>646-291400-
LAKE MICHIGAN

STATION/POSITION TIME  TEMP    WIND        PRES    WAVE
                       AIR SEA DIR/SP/G            HT/PER
                 (UTC) (F)     (DEG/KT/KT) (MB)    (FT/S)
CHAMBERS ISLAND  1240   33      20/ 12/ 14 1027.1F
NORTHPORT PIER   1240   33      CALM  /  3 1027.8R
SISTER BAY       1106   32        CALM       N/A
KEWAUNEE LAKESHO 1230   36      30/  8/ 13 1026.3R
SHEBOYGAN LAKESH 1200   37     360/  6/  7 1026.2R
PORT WASHINGTON  1240   37      10/  4/  7 1026.4R
MILWAUKEE LAKESH 1230   34      30/  5/  6   N/A
KENOSHA   LAKESH 1200   32      10/  8/ 10 1025.1
$$

TC  - TEMPERATURE IN CELSIUS
VSB - VISIBILITY IN STATUTE MILES
WCI - WIND CHILL INDEX
HX  - HEAT INDEX





USA.gov is the U.S. government's official web portal to all federal, state and local government web resources and services.